| time (UTC) | temp F | wind direction | speed knots | gust knots | rain 1hr in | rain 24hr in | rain mn in | humidity % | barometer mb |
| 20260503033042 | 39 | 0 | 0.0 | 0.0 | 0.00 | 0.00 | 0.00 | 86 | 1017.1 |
| 20260503031547 | 39 | 0 | 0.0 | 0.0 | 0.00 | 0.00 | 0.00 | 86 | 1017.2 |
| 20260503030046 | 39 | 0 | 0.0 | 0.0 | 0.00 | 0.00 | 0.00 | 87 | 1017.2 |
| 20260503024547 | 40 | 0 | 0.0 | 0.9 | 0.00 | 0.00 | 0.00 | 88 | 1017.3 |
| 20260503023054 | 40 | 318 | 0.0 | 0.9 | 0.00 | 0.00 | 0.00 | 87 | 1017.5 |
| 20260503021548 | 40 | 318 | 0.0 | 0.9 | 0.00 | 0.00 | 0.00 | 85 | 1017.4 |
| 20260503020048 | 41 | 0 | 0.0 | 0.0 | 0.00 | 0.00 | 0.00 | 83 | 1017.3 |
| 20260503014558 | 41 | 0 | 0.0 | 0.0 | 0.00 | 0.00 | 0.00 | 80 | 1017.2 |
| 20260503013045 | 42 | 0 | 0.0 | 0.9 | 0.00 | 0.00 | 0.00 | 78 | 1017.0 |
| 20260503011548 | 43 | 360 | 0.9 | 1.7 | 0.00 | 0.00 | 0.00 | 77 | 1017.0 |
| 20260503010052 | 43 | 0 | 0.0 | 1.7 | 0.00 | 0.00 | 0.00 | 74 | 1016.9 |
| 20260503004546 | 43 | 360 | 0.0 | 1.7 | 0.00 | 0.01 | 0.00 | 72 | 1016.9 |
| 20260503003046 | 43 | 0 | 0.0 | 1.7 | 0.00 | 0.01 | 0.00 | 72 | 1016.8 |
| 20260503001550 | 43 | 0 | 0.0 | 1.7 | 0.00 | 0.01 | 0.00 | 72 | 1016.7 |
| 20260503000046 | 43 | 360 | 0.0 | 1.7 | 0.00 | 0.01 | 0.00 | 72 | 1016.7 |
| 20260502234552 | 43 | 0 | 0.0 | 0.9 | 0.00 | 0.05 | 0.00 | 72 | 1016.7 |
| 20260502233043 | 43 | 0 | 0.0 | 0.0 | 0.00 | 0.05 | 0.00 | 72 | 1016.6 |
| 20260502231542 | 43 | 0 | 0.0 | 1.7 | 0.00 | 0.05 | 0.00 | 72 | 1016.6 |
| 20260502230051 | 43 | 0 | 0.0 | 0.9 | 0.00 | 0.05 | 0.00 | 72 | 1016.7 |
| 20260502224548 | 43 | 0 | 0.0 | 0.9 | 0.00 | 0.05 | 0.00 | 71 | 1016.7 |
| 20260502223046 | 43 | 0 | 0.0 | 0.9 | 0.00 | 0.05 | 0.00 | 71 | 1016.7 |
| 20260502221544 | 44 | 360 | 0.0 | 2.6 | 0.00 | 0.05 | 0.00 | 73 | 1016.7 |
| 20260502220045 | 44 | 0 | 0.0 | 1.7 | 0.00 | 0.05 | 0.00 | 74 | 1016.7 |
| 20260502214553 | 44 | 360 | 0.0 | 1.7 | 0.00 | 0.05 | 0.00 | 72 | 1016.6 |
| 20260502213047 | 44 | 0 | 0.0 | 3.5 | 0.00 | 0.05 | 0.00 | 72 | 1016.5 |
| 20260502211546 | 44 | 32 | 0.9 | 3.5 | 0.00 | 0.05 | 0.00 | 68 | 1016.5 |
| 20260502210054 | 44 | 0 | 0.0 | 7.0 | 0.00 | 0.05 | 0.00 | 65 | 1016.4 |
| 20260502204552 | 45 | 360 | 1.7 | 7.0 | 0.00 | 0.05 | 0.00 | 68 | 1016.4 |
| 20260502203047 | 44 | 20 | 0.9 | 4.3 | 0.00 | 0.05 | 0.00 | 71 | 1016.5 |
| 20260502201548 | 44 | 9 | 2.6 | 7.0 | 0.00 | 0.05 | 0.00 | 69 | 1016.6 |
| 20260502200053 | 44 | 32 | 1.7 | 7.0 | 0.00 | 0.05 | 0.00 | 71 | 1016.6 |
| 20260502194551 | 45 | 26 | 2.6 | 7.8 | 0.00 | 0.05 | 0.00 | 69 | 1016.7 |
| 20260502193046 | 45 | 360 | 3.5 | 7.8 | 0.00 | 0.05 | 0.00 | 65 | 1016.7 |
| 20260502191548 | 44 | 360 | 1.7 | 7.0 | 0.00 | 0.05 | 0.00 | 69 | 1016.8 |
| 20260502190048 | 45 | 360 | 2.6 | 7.0 | 0.00 | 0.05 | 0.00 | 68 | 1016.9 |
| 20260502184542 | 44 | 30 | 3.5 | 9.6 | 0.00 | 0.05 | 0.00 | 71 | 1016.9 |
| 20260502183047 | 44 | 360 | 2.6 | 8.7 | 0.00 | 0.05 | 0.00 | 73 | 1017.0 |
| 20260502181552 | 45 | 360 | 3.5 | 7.8 | 0.00 | 0.05 | 0.00 | 70 | 1017.0 |
| 20260502163051 | 44 | 360 | 2.6 | 10.4 | 0.00 | 0.05 | 0.00 | 74 | 1017.2 |
| 20260502161542 | 43 | 360 | 4.3 | 10.4 | 0.00 | 0.05 | 0.00 | 72 | 1017.3 |
| 20260502151559 | 44 | 9 | 5.2 | 13.0 | 0.00 | 0.05 | 0.00 | 75 | 1017.2 |
| 20260502123051 | 36 | 327 | 9.6 | 12.2 | 0.00 | 0.08 | 0.00 | 84 | 1016.6 |
| 20260502121546 | 36 | 339 | 7.8 | 12.2 | 0.00 | 0.08 | 0.00 | 83 | 1016.5 |
| 20260502114541 | 35 | 360 | 8.7 | 11.3 | 0.00 | 0.08 | 0.00 | 84 | 1016.4 |
| 20260502113051 | 34 | 360 | 7.0 | 9.6 | 0.00 | 0.08 | 0.00 | 86 | 1016.5 |
| 20260502111548 | 33 | 360 | 5.2 | 7.8 | 0.00 | 0.08 | 0.00 | 87 | 1016.5 |
| 20260502110052 | 33 | 302 | 2.6 | 4.3 | 0.00 | 0.08 | 0.00 | 88 | 1016.3 |
| 20260502104548 | 33 | 360 | 3.5 | 6.1 | 0.00 | 0.08 | 0.00 | 87 | 1016.3 |
| 20260502103041 | 33 | 293 | 2.6 | 6.1 | 0.00 | 0.08 | 0.00 | 87 | 1016.2 |
| 20260502101556 | 33 | 305 | 4.3 | 7.0 | 0.00 | 0.08 | 0.00 | 87 | 1016.1 |
| 20260502100113 | 34 | 306 | 5.2 | 7.8 | 0.00 | 0.08 | 0.00 | 87 | 1016.3 |
| 20260502070048 | 36 | 306 | 2.6 | 6.1 | 0.00 | 0.08 | 0.00 | 87 | 1015.9 |
| 20260502064543 | 37 | 292 | 3.5 | 6.1 | 0.00 | 0.08 | 0.00 | 88 | 1016.2 |
| 20260502063049 | 37 | 294 | 2.6 | 6.1 | 0.00 | 0.08 | 0.00 | 88 | 1016.2 |
| 20260502061544 | 38 | 304 | 5.2 | 7.8 | 0.00 | 0.08 | 0.00 | 88 | 1016.1 |
| 20260502060041 | 38 | 297 | 4.3 | 7.8 | 0.00 | 0.08 | 0.00 | 90 | 1016.2 |
| 20260502054549 | 38 | 280 | 4.3 | 6.1 | 0.00 | 0.08 | 0.00 | 92 | 1016.4 |
| 20260502053052 | 38 | 266 | 3.5 | 7.0 | 0.00 | 0.08 | 0.00 | 92 | 1016.4 |
| 20260502051548 | 39 | 273 | 4.3 | 6.1 | 0.00 | 0.08 | 0.00 | 92 | 1016.3 |
| 20260502050048 | 39 | 269 | 3.5 | 8.7 | 0.00 | 0.08 | 0.00 | 92 | 1016.4 |
| 20260502044546 | 40 | 263 | 1.7 | 3.5 | 0.00 | 0.08 | 0.00 | 92 | 1016.3 |
| 20260502043047 | 40 | 249 | 1.7 | 4.3 | 0.00 | 0.08 | 0.00 | 92 | 1016.4 |
| 20260502041547 | 40 | 260 | 1.7 | 3.5 | 0.00 | 0.08 | 0.00 | 93 | 1016.3 |
| 20260502040044 | 40 | 259 | 2.6 | 3.5 | 0.00 | 0.08 | 0.00 | 92 | 1016.3 |
| 20260502034547 | 41 | 274 | 0.9 | 2.6 | 0.00 | 0.08 | 0.08 | 92 | 1016.3 |